Location: Albany
(35.0000°S, 118.0000°E)
Time: 00:53:40
(UTC-04:00)

Cosmos 1626 - Visible Passes

Search period start: 24 July 2016 00:00
Search period end: 03 August 2016 00:00
Orbit: 498 x 504 km, 82.5° (Epoch: 23 July)

Date Brightness Start Highest point End Pass type
(mag) Time Alt. Az. Time Alt. Az. Time Alt. Az.
24 Jul 3.2 06:20:25 10° SSW 06:24:07 48° W 06:27:46 10° NNW visible
24 Jul 2.8 18:29:00 10° N 18:32:42 61° E 18:36:30 10° SSE visible
25 Jul 2.5 06:00:50 10° S 06:04:40 73° W 06:08:25 10° N visible
25 Jul 3.6 18:09:42 10° NNE 18:13:15 41° E 18:16:53 10° SSE visible
26 Jul 2.1 05:41:20 10° S 05:45:11 77° E 05:48:57 10° N visible
26 Jul 4.4 17:50:32 10° NNE 17:53:49 29° E 17:57:09 10° SSE visible
27 Jul 5.0 17:31:33 10° NE 17:34:24 21° E 17:37:17 10° SE visible
28 Jul 5.7 06:40:00 10° WSW 06:41:07 11° W 06:42:15 10° WNW visible
28 Jul 5.4 17:12:51 10° ENE 17:15:01 15° E 17:17:10 10° SE visible
29 Jul 5.4 06:19:24 10° SW 06:21:44 16° W 06:24:03 10° NW visible
29 Jul 5.8 16:55:02 10° E 16:55:37 10° E 16:56:12 10° ESE visible
29 Jul 2.7 18:27:02 10° NNW 18:30:34 38° W 18:34:10 10° S visible
30 Jul 5.1 05:59:20 10° SW 06:02:19 22° W 06:05:17 10° NW visible
30 Jul 2.2 18:07:19 10° NNW 18:11:02 55° W 18:14:49 10° S visible
31 Jul 2.0 17:47:44 10° N 17:51:31 83° W 17:55:22 10° S visible
01 Aug 2.5 17:28:17 10° N 17:32:01 67° E 17:35:50 10° SSE visible
02 Aug 3.3 17:08:56 10° NNE 17:12:33 45° E 17:16:13 10° SSE visible
